Time,TemperatureF,DewpointF,PressureIn,WindDirection,WindDirectionDegrees,WindSpeedMPH,WindSpeedGustMPH,Humidity,HourlyPrecipIn,Conditions,Clouds,dailyrainin,SoftwareType,DateUTC
2013-08-07 04:43:00,55.0,43.0,-100.00,ESE,119,1.0,2.0,65,0.00,,,0.00,,2013-08-07 10:43:00,
2013-08-07 04:52:00,55.0,43.0,-100.00,ESE,119,1.0,2.0,65,0.00,,,0.00,,2013-08-07 10:52:00,
2013-08-07 05:01:00,55.0,43.0,-100.00,ESE,119,1.0,2.0,65,0.00,,,0.00,,2013-08-07 11:01:00,
2013-08-07 05:11:00,55.0,43.0,-100.00,ESE,119,1.0,2.0,65,0.00,,,0.00,,2013-08-07 11:11:00,
2013-08-07 05:22:00,55.0,40.0,-100.00,ESE,102,2.0,4.0,56,0.00,,,0.00,,2013-08-07 11:22:00,
2013-08-07 05:43:00,54.0,36.0,-100.00,ENE,59,1.0,2.0,52,0.00,,,0.00,,2013-08-07 11:43:00,
2013-08-07 05:52:00,54.0,36.0,-100.00,ENE,59,1.0,2.0,52,0.00,,,0.00,,2013-08-07 11:52:00,
2013-08-07 06:02:00,54.0,36.0,-100.00,ENE,59,1.0,2.0,52,0.00,,,0.00,,2013-08-07 12:02:00,
2013-08-07 06:22:00,54.0,39.0,-100.00,ESE,107,1.0,2.0,56,0.00,,,0.00,,2013-08-07 12:22:00,
2013-08-07 06:32:00,54.0,39.0,-100.00,ESE,107,1.0,2.0,56,0.00,,,0.00,,2013-08-07 12:32:00,
2013-08-07 06:43:00,54.0,39.0,-100.00,ESE,107,1.0,2.0,56,0.00,,,0.00,,2013-08-07 12:43:00,
2013-08-07 08:00:00,54.0,46.0,-100.00,East,85,0.0,1.0,76,0.00,,,0.00,,2013-08-07 14:00:00,
2013-08-07 08:01:00,53.0,46.0,-100.00,East,100,0.0,1.0,76,0.00,,,0.00,,2013-08-07 14:01:00,
2013-08-07 08:11:00,53.0,46.0,-100.00,East,100,0.0,1.0,76,0.00,,,0.00,,2013-08-07 14:11:00,
2013-08-07 08:22:00,53.0,46.0,-100.00,East,100,0.0,1.0,76,0.00,,,0.00,,2013-08-07 14:22:00,
2013-08-07 08:43:00,54.0,46.0,-100.00,East,85,0.0,1.0,76,0.00,,,0.00,,2013-08-07 14:43:00,
2013-08-07 08:52:00,54.0,46.0,-100.00,East,85,0.0,1.0,76,0.00,,,0.00,,2013-08-07 14:52:00,
2013-08-07 09:22:00,57.0,46.0,-100.00,ESE,110,1.0,2.0,67,0.00,,,0.00,,2013-08-07 15:22:00,
2013-08-07 09:43:00,62.0,42.0,-100.00,SE,128,1.0,2.0,50,0.00,,,0.00,,2013-08-07 15:43:00,
2013-08-07 09:53:00,62.0,42.0,-100.00,SE,128,1.0,2.0,50,0.00,,,0.00,,2013-08-07 15:53:00,
2013-08-07 10:02:00,63.0,44.0,-100.00,NW,309,0.0,2.0,49,0.00,,,0.00,,2013-08-07 16:02:00,
2013-08-07 10:11:00,63.0,44.0,-100.00,NW,309,0.0,2.0,49,0.00,,,0.00,,2013-08-07 16:11:00,
2013-08-07 10:22:00,63.0,44.0,-100.00,NW,309,0.0,2.0,49,0.00,,,0.00,,2013-08-07 16:22:00,
2013-08-07 10:32:00,63.0,42.0,-100.00,NNW,330,3.0,4.0,46,0.00,,,0.00,,2013-08-07 16:32:00,
2013-08-07 10:43:00,63.0,42.0,-100.00,NNW,330,3.0,4.0,46,0.00,,,0.00,,2013-08-07 16:43:00,
2013-08-07 10:53:00,63.0,42.0,-100.00,NNW,330,3.0,4.0,46,0.00,,,0.00,,2013-08-07 16:53:00,
2013-08-07 11:01:00,67.0,42.0,-100.00,NNW,339,3.0,4.0,40,0.00,,,0.00,,2013-08-07 17:01:00,
2013-08-07 11:11:00,67.0,42.0,-100.00,NNW,339,3.0,4.0,40,0.00,,,0.00,,2013-08-07 17:11:00,
2013-08-07 11:22:00,67.0,42.0,-100.00,NNW,339,3.0,4.0,40,0.00,,,0.00,,2013-08-07 17:22:00,
2013-08-07 11:33:00,71.0,46.0,-100.00,West,263,1.0,2.0,41,0.00,,,0.00,,2013-08-07 17:33:00,
2013-08-07 11:43:00,71.0,46.0,-100.00,West,263,1.0,2.0,41,0.00,,,0.00,,2013-08-07 17:43:00,
2013-08-07 11:52:00,71.0,46.0,-100.00,West,263,1.0,2.0,41,0.00,,,0.00,,2013-08-07 17:52:00,
2013-08-07 12:00:00,75.0,43.0,-100.00,NW,320,4.0,5.0,32,0.00,,,0.00,,2013-08-07 18:00:00,
2013-08-07 12:02:00,71.0,42.0,-100.00,NW,325,5.0,6.0,35,0.00,,,0.00,,2013-08-07 18:02:00,
2013-08-07 12:11:00,71.0,42.0,-100.00,NW,325,5.0,6.0,35,0.00,,,0.00,,2013-08-07 18:11:00,
2013-08-07 12:22:00,71.0,42.0,-100.00,NW,325,5.0,6.0,35,0.00,,,0.00,,2013-08-07 18:22:00,
2013-08-07 12:32:00,75.0,43.0,-100.00,NW,320,4.0,5.0,32,0.00,,,0.00,,2013-08-07 18:32:00,
2013-08-07 12:43:00,75.0,43.0,-100.00,NW,320,4.0,5.0,32,0.00,,,0.00,,2013-08-07 18:43:00,
2013-08-07 12:52:00,75.0,43.0,-100.00,NW,320,4.0,5.0,32,0.00,,,0.00,,2013-08-07 18:52:00,
2013-08-07 13:22:00,78.0,42.0,-100.00,NNW,329,2.0,6.0,27,0.00,,,0.00,,2013-08-07 19:22:00,
2013-08-07 13:32:00,78.0,42.0,-100.00,NNW,329,2.0,6.0,27,0.00,,,0.00,,2013-08-07 19:32:00,
2013-08-07 13:44:00,78.0,42.0,-100.00,NNW,329,2.0,6.0,27,0.00,,,0.00,,2013-08-07 19:44:00,
2013-08-07 14:11:00,82.0,37.0,-100.00,WSW,257,2.0,4.0,20,0.00,,,0.00,,2013-08-07 20:11:00,
2013-08-07 14:22:00,82.0,37.0,-100.00,WSW,257,2.0,4.0,20,0.00,,,0.00,,2013-08-07 20:22:00,
2013-08-07 14:43:00,82.0,31.0,-100.00,NNW,343,4.0,6.0,16,0.00,,,0.00,,2013-08-07 20:43:00,
2013-08-07 14:52:00,82.0,31.0,-100.00,NNW,343,4.0,6.0,16,0.00,,,0.00,,2013-08-07 20:52:00,
2013-08-07 15:01:00,84.0,31.0,-100.00,NNW,332,4.0,7.0,14,0.00,,,0.00,,2013-08-07 21:01:00,
2013-08-07 15:11:00,84.0,31.0,-100.00,NNW,332,4.0,7.0,14,0.00,,,0.00,,2013-08-07 21:11:00,
2013-08-07 15:22:00,84.0,31.0,-100.00,NNW,332,4.0,7.0,14,0.00,,,0.00,,2013-08-07 21:22:00,
2013-08-07 15:43:00,85.0,27.0,-100.00,WNW,288,3.0,6.0,12,0.00,,,0.00,,2013-08-07 21:43:00,
2013-08-07 15:52:00,85.0,27.0,-100.00,WNW,288,3.0,6.0,12,0.00,,,0.00,,2013-08-07 21:52:00,
2013-08-07 16:12:00,84.0,33.0,-100.00,NNW,333,5.0,7.0,16,0.00,,,0.00,,2013-08-07 22:12:00,
2013-08-07 16:22:00,84.0,33.0,-100.00,NNW,333,5.0,7.0,16,0.00,,,0.00,,2013-08-07 22:22:00,
2013-08-07 16:30:00,84.0,27.0,-100.00,NNW,332,7.0,11.0,13,0.00,,,0.00,,2013-08-07 22:30:00,
2013-08-07 16:32:00,86.0,33.0,-100.00,WNW,294,4.0,7.0,15,0.00,,,0.00,,2013-08-07 22:32:00,
2013-08-07 16:43:00,86.0,33.0,-100.00,WNW,294,4.0,7.0,15,0.00,,,0.00,,2013-08-07 22:43:00,
2013-08-07 16:52:00,86.0,33.0,-100.00,WNW,294,4.0,7.0,15,0.00,,,0.00,,2013-08-07 22:52:00,
2013-08-07 17:01:00,84.0,27.0,-100.00,NNW,332,7.0,11.0,13,0.00,,,0.00,,2013-08-07 23:01:00,
2013-08-07 17:11:00,84.0,27.0,-100.00,NNW,332,7.0,11.0,13,0.00,,,0.00,,2013-08-07 23:11:00,
2013-08-07 17:22:00,84.0,27.0,-100.00,NNW,332,7.0,11.0,13,0.00,,,0.00,,2013-08-07 23:22:00,
2013-08-07 17:43:00,84.0,29.0,-100.00,NW,322,2.0,4.0,13,0.00,,,0.00,,2013-08-07 23:43:00,
2013-08-07 17:52:00,84.0,29.0,-100.00,NW,322,2.0,4.0,13,0.00,,,0.00,,2013-08-07 23:52:00,
2013-08-07 18:01:00,83.0,29.0,-100.00,NW,304,2.0,4.0,14,0.00,,,0.00,,2013-08-08 00:01:00,
2013-08-07 18:11:00,83.0,29.0,-100.00,NW,304,2.0,4.0,14,0.00,,,0.00,,2013-08-08 00:11:00,
2013-08-07 18:22:00,83.0,29.0,-100.00,NW,304,2.0,4.0,14,0.00,,,0.00,,2013-08-08 00:22:00,
2013-08-07 18:43:00,84.0,29.0,-100.00,NW,325,5.0,8.0,14,0.00,,,0.00,,2013-08-08 00:43:00,
2013-08-07 18:52:00,84.0,29.0,-100.00,NW,325,5.0,8.0,14,0.00,,,0.00,,2013-08-08 00:52:00,
2013-08-07 19:00:00,83.0,31.0,-100.00,WNW,292,2.0,5.0,15,0.00,,,0.00,,2013-08-08 01:00:00,
2013-08-07 19:02:00,83.0,30.0,-100.00,NW,318,5.0,9.0,14,0.00,,,0.00,,2013-08-08 01:02:00,
2013-08-07 19:11:00,83.0,30.0,-100.00,NW,318,5.0,9.0,14,0.00,,,0.00,,2013-08-08 01:11:00,
2013-08-07 19:22:00,83.0,30.0,-100.00,NW,318,5.0,9.0,14,0.00,,,0.00,,2013-08-08 01:22:00,
2013-08-07 19:32:00,83.0,31.0,-100.00,WNW,292,2.0,5.0,15,0.00,,,0.00,,2013-08-08 01:32:00,
2013-08-07 19:43:00,83.0,31.0,-100.00,WNW,292,2.0,5.0,15,0.00,,,0.00,,2013-08-08 01:43:00,
2013-08-07 19:52:00,83.0,31.0,-100.00,WNW,292,2.0,5.0,15,0.00,,,0.00,,2013-08-08 01:52:00,
2013-08-07 20:22:00,80.0,39.0,-100.00,NNW,330,2.0,3.0,23,0.00,,,0.00,,2013-08-08 02:22:00,
2013-08-07 20:42:00,78.0,39.0,-100.00,SW,224,1.0,2.0,25,0.00,,,0.00,,2013-08-08 02:42:00,
2013-08-07 20:52:00,78.0,39.0,-100.00,SW,224,1.0,2.0,25,0.00,,,0.00,,2013-08-08 02:52:00,
2013-08-07 21:01:00,78.0,39.0,-100.00,SW,224,1.0,2.0,25,0.00,,,0.00,,2013-08-08 03:01:00,
2013-08-07 21:22:00,76.0,33.0,-100.00,SW,232,2.0,4.0,22,0.00,,,0.00,,2013-08-08 03:22:00,
2013-08-07 21:32:00,76.0,33.0,-100.00,SW,232,2.0,4.0,22,0.00,,,0.00,,2013-08-08 03:32:00,
2013-08-07 21:43:00,76.0,33.0,-100.00,SW,232,2.0,4.0,22,0.00,,,0.00,,2013-08-08 03:43:00,
2013-08-07 22:01:00,74.0,31.0,-100.00,SE,137,2.0,4.0,20,0.00,,,0.00,,2013-08-08 04:01:00,
2013-08-07 22:11:00,74.0,31.0,-100.00,SE,137,2.0,4.0,20,0.00,,,0.00,,2013-08-08 04:11:00,
2013-08-07 22:22:00,74.0,31.0,-100.00,SE,137,2.0,4.0,20,0.00,,,0.00,,2013-08-08 04:22:00,
2013-08-07 22:44:00,73.0,31.0,-100.00,SSE,155,1.0,3.0,21,0.00,,,0.00,,2013-08-08 04:44:00,
2013-08-07 22:53:00,73.0,31.0,-100.00,SSE,155,1.0,3.0,21,0.00,,,0.00,,2013-08-08 04:53:00,
2013-08-07 23:01:00,73.0,31.0,-100.00,SSE,155,1.0,3.0,21,0.00,,,0.00,,2013-08-08 05:01:00,
2013-08-07 23:11:00,73.0,31.0,-100.00,SSE,155,1.0,3.0,21,0.00,,,0.00,,2013-08-08 05:11:00,
2013-08-07 23:21:00,72.0,29.0,-100.00,WSW,246,1.0,3.0,21,0.00,,,0.00,,2013-08-08 05:21:00,
2013-08-07 23:33:00,72.0,29.0,-100.00,WSW,246,1.0,3.0,21,0.00,,,0.00,,2013-08-08 05:33:00,
2013-08-07 23:52:00,70.0,30.0,-100.00,SW,220,2.0,3.0,23,0.00,,,0.00,,2013-08-08 05:52:00,